CZ-4B DEB, 43660

Orbit data source: Space-Track

CZ-4B DEB, 43660 is space debris in SSO originally from a launch on Wed, 24 Oct 2018 UTC launched from the Taiyaun Space Center, China (TSC). Debris objects in space refer to the collection of defunct objects orbiting the Earth. Examples of debris include non-operational satellites, rocket bodies, and fragments generated from explosions, collisions, or faulty payload assembly.

Loading next visibility...
CZ-4B DEB details
Identifier
43660, 2018-081D
Orbit
SSO
Last TLE update12 hours ago
Origin
Flag of CNCNSA (CN / PRC)
ManufacturerSAST
MissionSpacecraft
Bus & MotorUnknown
MassUnknown
Launch date (UTC)
2018-10-24 (6 years ago)
Launch vehicleUnknown
Launch site
Taiyaun Space Center, China (TSC)
Object type
Payload
Rocket body
Debris
Shape & HBRUnknown
Radar Cross SectionSmall (<0.1 m²)

Expand to show TLE details & history

TLE from 12 hours ago
0 CZ-4B DEB
1 43660U 18081D   24361.04169328  .00000279  00000-0  25981-3 0  9992
2 43660  99.1662  27.6144 0013445  19.2333 340.9331 13.90368775313128
Epoch: 2024-12-26T01:00Z
Definitive object data (Epoch: 2024-12-26T01:00:02.299Z)
Latitude0.00003°
Longitude-82.42196°
Altitude920.914 km
Speed7.396 km/s
True Right ascension01h 50m 27s
True Declination0° 00' 00"
Sunlit
Object was in daylight at TLE epoch
Visualization TLE readout
Latitude20.58204°
Longitude-85.37709°
Altitude920.027 km
Speed7.399 km/s
Apparent Right ascension01h 11m 16s
Apparent Declination-7° 27' 04"
Sunlit
Object is in daylight
Visualization observer readout
Local Sidereal Time12:33:00
Azimuth342.665° N
Elevation-56.423°
Doppler factor1
Orbital elements
Apogee altitude934.378 km
Perigee altitude914.741 km
Semi-major axis7,302.696 km
Eccentricity0.0013445
Inclination99.1662°
RAAN27.6144°
Arg. of periapsis19.2333°
True anomaly340.88269°
Mean anomaly340.9331°
Eccentric anomaly340.9079°
Mean motion3.47791 °/min
BSTAR0.00025981
Orbital period103.51 mins
Loading maneuver chart data...
Loading historical data...
Loading historical data...
Loading historical data...
Loading historical data...
Loading historical data...
Loading historical data...
Loading historical data...

CZ-4B DEB Visibility forecast

Observer location: undefined°, undefined

Span
Click to sort rows by Start time (UTC) header in descending order
Start Az.
Max El. time (UTC)
Max El. Az.
Max El.
End time (UTC)
End Az.
8 mins2024-12-26 13:42:22.207Z49.502° ENE2024-12-26 13:46:22.207Z96.383° ESE19.772°2024-12-26 13:50:22.207Z140.313° SSE
9 mins2024-12-26 15:24:22.207Z0.722° NNE2024-12-26 15:28:22.207Z300.98° NW39.057°2024-12-26 15:33:22.207Z216.347° SW
9 mins2024-12-27 01:19:22.207Z131.152° SE2024-12-27 01:23:22.207Z58.923° ENE35.023°2024-12-27 01:28:22.207Z359.123° N
7 mins2024-12-27 03:02:22.207Z223.883° SW2024-12-27 03:05:22.207Z264.735° W23.16°2024-12-27 03:09:22.207Z314.663° NW
|